Location: ????
(55.5675°N, 37.6272°E)
Time: 02:33:20
(UTC+00:00)

ARIANE 6 FM1 Upper Stage - Pass Details

Date: 14 April 2026
Orbit: 526 x 601 km, 62.0° (Epoch: 20 May)

Event Time Altitude Azimuth Distance (km) Brightness Sun altitude
Rises 23:18:19 0° 304° (NW) 2,679 6.2 -20.9°
Reaches altitude 10° 23:20:34 10° 299° (WNW) 1,781 5.2 -20.8°
Enters shadow 23:22:15 23° 288° (WNW) 1,164 4.1 -20.7°
